Wetbulb
50.39 47.76 44.70 46.90 46.50 47.38 47.25 47.20 47.57 50.82 55.40 52.23 52.11 51.97 53.72 55.25 57.37 57.51 57.28 58.23 59.39 60.16 61.92 60.25 58.28 57.49 57.89 58.18 58.91 58.95 58.69 59.81 59.72 58.93 57.79 58.25 57.46 57.74 57.75 57.44 59.49 60.89 60.48 60.62
48.22 45.14 48.86 50.25 49.85 50.90 50.01 48.79 47.93 51.97 54.43 51.72 51.89 51.15 54.10 54.19 55.57 56.79 57.66 58.81 59.60 59.95 60.00 60.12 58.09 57.93 57.15 56.70 57.69 58.03 58.64 59.46 59.14 59.25 58.42 57.62 57.55 58.07 58.90 59.36 59.63 60.82 60.41 60.11
45.99 48.60 51.91 50.18 48.40 50.38 48.71 48.98 49.31 49.89 51.83 52.01 51.00 48.09 50.08 54.44 57.65 57.75 58.90 60.69 60.13 58.74 58.43 59.59 59.40 58.02 57.04 56.56 57.01 57.79 58.55 59.32 59.23 58.75 58.52 58.43 58.08 58.06 58.13 58.36 58.86 59.92 60.45 60.52
47.71 50.32 50.09 48.68 48.03 47.52 42.50 51.35 52.67 51.18 46.79 43.46 49.42 40.99 48.31 51.89 53.48 56.04 55.83 57.37 57.67 57.90 58.62 61.28 60.91 58.61 57.38 57.20 57.68 57.67 58.45 58.91 59.19 58.08 58.10 57.48 56.95 55.74 57.31 57.92 58.89 59.56 60.22 60.13
47.91 47.67 47.75 47.16 48.64 48.84 46.68 53.15 51.83 50.01 46.28 44.17 46.78 42.63 46.44 50.89 50.56 53.21 55.72 56.37 57.37 57.72 58.54 60.90 61.04 60.41 59.27 58.76 57.75 58.00 58.53 58.87 59.43 58.17 58.07 57.62 57.12 57.83 58.90 59.29 59.50 59.63 59.50 60.29
48.02 50.45 50.10 49.35 51.25 51.65 53.26 49.93 46.83 44.94 43.16 39.51 43.93 44.13 43.40 46.92 50.66 53.70 55.78 56.63 58.57 58.08 59.39 61.42 61.06 61.42 60.71 59.72 59.02 58.46 58.04 58.30 58.81 58.70 58.51 59.09 59.43 59.02 58.52 58.87 58.03 58.22 58.72 59.10
46.60 47.61 49.54 51.96 49.17 51.15 49.42 43.90 38.11 37.01 38.51 38.44 45.02 44.48 45.14 50.40 53.33 55.59 56.12 56.47 58.41 58.52 58.51 59.80 61.17 60.51 61.10 59.94 59.98 59.91 58.62 57.79 58.58 58.90 59.22 59.30 60.29 60.73 59.40 59.05 58.37 58.08 58.80 58.87
42.29 42.43 47.82 53.22 50.28 48.30 48.32 46.03 40.70 35.42 35.78 39.07 46.48 43.33 47.44 53.12 55.32 56.94 57.69 57.96 58.05 58.24 58.65 58.16 60.39 61.70 61.15 61.21 61.32 60.78 60.88 59.88 60.16 59.91 59.71 60.05 60.76 60.92 60.19 60.22 59.39 58.75 58.39 58.47
41.83 43.59 49.98 51.37 53.49 52.37 48.38 46.07 47.33 41.14 39.90 39.64 43.07 47.92 51.34 53.17 54.57 56.44 56.05 56.86 56.99 57.57 58.46 59.03 58.94 61.34 62.07 61.70 61.10 61.12 61.49 61.83 62.15 62.14 62.12 61.84 61.35 61.33 61.17 60.81 60.46 60.34 60.29 60.34
46.41 42.33 47.74 52.27 52.36 51.40 48.32 49.26 42.98 40.60 36.15 35.60 41.49 43.45 43.95 49.06 51.37 53.44 54.50 55.41 56.20 57.41 58.06 58.11 58.56 59.21 62.93 62.41 62.32 62.58 62.40 63.28 64.10 64.11 63.96 63.82 62.49 62.56 62.74 61.74 60.89 60.95 61.12 60.48
46.12 44.11 44.74 48.53 46.55 46.07 46.80 44.83 43.54 42.37 41.70 38.32 37.16 41.41 49.16 49.63 51.64 53.51 54.98 55.56 55.70 55.60 56.67 57.26 57.33 61.27 62.96 62.86 62.70 62.96 63.32 63.39 63.37 63.79 64.29 64.30 63.99 62.76 62.91 62.17 61.68 61.23 61.08 61.26
46.97 42.97 40.81 45.34 50.27 51.13 48.66 46.34 44.33 40.26 39.72 41.45 40.99 41.84 51.24 51.71 54.40 55.12 55.08 55.45 55.49 55.77 56.23 55.82 58.78 60.04 61.58 62.70 62.60 63.09 63.30 63.70 62.99 62.12 62.67 63.93 63.02 62.08 61.68 61.76 62.14 61.53 61.04 61.30
48.93 43.49 40.31 43.20 46.99 48.81 47.30 48.76 45.93 43.23 43.06 41.21 39.82 41.94 52.88 53.76 54.38 55.02 54.01 54.41 55.00 55.97 57.01 57.77 58.34 58.81 58.57 58.57 62.19 62.95 62.43 63.58 63.33 61.46 63.68 62.85 62.06 61.04 60.73 60.78 62.14 62.41 61.88 61.34
53.77 45.56 43.62 40.59 44.08 46.56 45.96 49.04 48.05 43.89 40.01 41.33 42.30 46.26 50.13 51.84 54.01 55.10 55.50 55.29 56.00 56.92 57.85 58.11 57.56 58.06 58.05 61.18 62.60 62.80 61.79 62.38 63.32 63.10 63.15 61.98 62.72 62.81 61.33 60.73 60.60 61.86 61.49 60.78
49.67 45.15 45.63 46.82 50.00 49.47 48.14 48.31 48.25 45.80 45.98 45.16 47.39 47.60 49.55 51.77 54.11 55.48 56.39 56.74 57.06 56.85 57.56 57.14 57.65 58.82 57.78 60.48 62.38 62.22 60.70 60.42 62.65 62.48 62.92 62.74 63.36 63.63 62.75 62.05 61.42 61.19 61.15 61.11
49.08 46.28 45.16 46.05 50.40 49.02 48.29 50.46 50.64 49.60 50.38 50.02 49.66 48.74 53.34 55.15 55.22 55.84 56.26 56.45 55.09 55.88 57.43 58.13 59.83 60.41 59.69 60.80 60.36 60.47 59.49 59.99 61.51 61.86 62.58 61.72 60.70 61.52 62.51 62.37 60.79 61.09 60.00 58.84
48.78 47.11 44.27 42.54 48.02 47.84 44.35 48.04 49.16 51.92 53.09 50.84 47.88 50.76 54.32 54.27 55.06 54.68 55.47 55.79 55.65 56.62 57.84 58.31 59.85 60.21 61.14 61.47 61.13 58.94 59.98 62.01 61.30 60.63 60.68 59.70 58.62 61.11 61.53 62.01 61.42 61.35 59.91 57.61
48.79 46.60 44.63 42.77 43.75 37.72 46.06 52.39 53.21 53.58 54.56 54.31 53.44 54.08 55.18 54.92 55.09 55.86 56.62 55.95 56.23 57.45 58.03 59.40 59.86 60.05 60.63 60.62 60.79 60.33 61.07 61.10 60.95 60.05 60.50 61.10 58.85 59.19 59.68 60.08 59.43 57.29 56.46 56.50
49.78 47.03 43.44 41.73 39.94 44.98 48.91 51.81 52.42 52.46 52.08 55.24 54.03 55.06 55.77 56.32 54.58 54.03 57.48 58.07 57.16 57.90 59.44 61.01 61.12 60.53 59.87 60.03 59.30 59.30 59.29 60.05 60.51 60.53 59.21 59.54 58.76 57.16 58.25 57.82 56.60 57.13 56.26 55.50
50.66 49.30 47.09 41.55 39.35 38.22 46.30 53.94 56.97 54.76 45.93 56.66 55.22 54.42 54.99 53.23 46.82 49.51 55.79 58.01 59.31 61.00 61.08 61.02 60.68 60.06 58.24 57.88 58.51 58.77 58.72 58.30 58.02 58.95 58.71 58.58 56.71 56.26 55.15 55.58 56.19 55.74 55.44 55.65
44.97 44.97 43.88 39.75 40.87 45.53 50.03 55.29 56.97 45.26 46.79 55.26 55.78 54.66 53.89 51.45 51.82 54.65 57.68 59.70 61.10 61.31 61.51 61.05 59.99 59.33 59.30 58.94 58.48 57.60 56.77 56.73 57.95 58.96 58.49 58.06 55.71 54.44 54.13 53.63 54.63 54.63 54.13 53.99
44.38 43.20 42.33 42.36 40.29 41.76 55.53 54.76 50.52 52.18 54.36 57.04 55.63 54.88 53.95 54.55 55.68 57.22 58.98 59.94 61.25 61.02 61.65 61.91 59.82 59.11 59.37 59.25 59.20 58.34 57.65 58.88 59.00 57.86 55.35 53.14 52.58 52.69 53.30 53.43 53.74 53.39 52.95 52.48
44.11 46.18 44.82 46.48 46.13 51.63 55.50 54.51 55.81 57.14 56.71 56.81 56.14 56.43 56.33 55.52 56.66 58.55 58.93 59.96 60.87 61.28 61.21 61.90 60.42 59.44 59.62 59.82 59.23 58.47 58.66 57.99 57.06 54.04 53.42 51.28 50.60 52.76 52.44 52.26 52.46 51.77 51.98 51.27
48.88 51.64 48.84 50.59 51.85 53.48 55.70 56.88 56.23 58.65 57.81 58.00 58.12 57.31 56.93 56.53 57.72 58.31 58.52 58.67 59.12 60.32 60.80 61.07 59.79 58.89 58.93 59.66 59.69 58.76 58.04 57.00 55.18 53.38 52.11 51.31 52.10 51.35 51.76 51.59 51.46 51.18 51.35 51.30
50.97 51.79 49.98 49.61 52.50 54.12 56.13 56.57 57.37 58.80 58.49 58.28 58.55 58.03 57.91 57.85 58.06 58.74 58.24 58.20 58.56 59.47 60.60 59.49 59.11 58.45 58.87 58.77 58.39 58.46 58.04 56.68 54.29 52.48 51.86 52.03 51.06 50.41 51.35 52.28 51.59 51.96 52.84 51.54
51.86 50.68 49.32 49.19 54.10 54.26 55.05 57.59 58.77 58.97 58.65 59.06 58.03 58.04 58.91 58.85 58.47 59.08 58.39 58.14 58.83 59.72 59.69 59.57 59.16 59.15 59.06 58.69 58.44 58.56 58.04 55.80 53.89 52.65 52.69 50.64 50.02 51.02 51.27 50.42 50.94 45.94 45.06 43.80
MSLP
1009.21 1009.65 1010.19 1010.16 1010.21 1010.52 1011.02 1011.72 1012.52 1012.96 1012.99 1013.11 1013.43 1013.59 1013.71 1013.36 1013.16 1012.99 1013.05 1012.83 1012.69 1012.42 1012.11 1012.44 1012.23 1012.38 1012.87 1013.40 1014.04 1014.67 1015.14 1015.67 1015.94 1016.42 1016.79 1017.04 1017.16 1017.09 1017.10 1017.17 1017.01 1017.11 1017.31 1017.49
1009.33 1009.57 1009.40 1009.39 1009.41 1010.11 1010.80 1011.97 1012.95 1013.33 1013.44 1013.67 1013.79 1013.85 1013.39 1013.29 1012.86 1012.80 1012.83 1012.51 1012.51 1012.41 1012.20 1012.44 1012.44 1012.90 1013.57 1013.95 1014.34 1014.95 1015.14 1015.52 1015.60 1015.75 1015.99 1016.20 1016.53 1016.62 1016.57 1016.54 1016.60 1016.69 1016.93 1017.23
1009.39 1009.23 1008.91 1009.07 1009.31 1009.81 1010.60 1011.64 1012.75 1013.55 1014.19 1014.31 1014.41 1014.22 1013.72 1013.07 1013.01 1012.64 1012.35 1012.41 1012.41 1012.60 1012.60 1012.54 1012.56 1013.21 1013.75 1014.21 1014.35 1014.46 1014.63 1014.87 1015.09 1015.44 1015.76 1016.08 1016.14 1016.34 1016.37 1016.41 1016.45 1016.39 1016.60 1016.99
1009.17 1008.83 1008.87 1008.88 1009.13 1009.45 1010.33 1010.85 1012.18 1013.64 1014.86 1015.35 1015.33 1015.55 1014.08 1013.41 1013.22 1012.59 1012.26 1012.46 1012.58 1012.33 1012.36 1012.33 1012.43 1013.09 1013.93 1013.97 1014.22 1014.34 1014.61 1014.96 1015.28 1015.67 1015.93 1016.01 1015.99 1016.22 1016.19 1016.13 1015.93 1015.89 1015.95 1016.26
1009.04 1008.70 1008.57 1008.73 1008.73 1009.26 1010.33 1010.70 1012.21 1014.14 1015.32 1015.93 1015.89 1016.03 1014.21 1013.55 1012.95 1012.46 1012.33 1012.27 1012.63 1012.63 1012.23 1012.32 1012.26 1012.79 1013.41 1014.08 1014.53 1014.62 1014.91 1015.09 1015.22 1015.43 1015.64 1016.07 1016.17 1016.21 1015.94 1015.92 1015.96 1015.92 1015.79 1015.91
1009.08 1008.53 1008.42 1008.29 1008.84 1009.35 1010.69 1011.78 1013.47 1014.97 1016.13 1016.65 1016.21 1016.17 1014.84 1013.78 1012.93 1012.53 1012.39 1012.39 1012.48 1012.41 1012.32 1012.35 1012.37 1012.62 1013.52 1014.19 1014.33 1015.12 1015.04 1015.17 1014.90 1014.89 1015.22 1015.59 1015.93 1016.20 1016.33 1016.08 1015.96 1016.09 1016.05 1015.91
1009.56 1008.91 1008.37 1008.21 1009.16 1010.09 1010.51 1012.52 1014.95 1016.41 1016.97 1017.07 1016.38 1015.99 1014.23 1013.00 1012.49 1012.64 1012.52 1012.20 1011.95 1012.26 1012.24 1012.18 1012.41 1012.67 1013.08 1013.19 1013.87 1014.78 1014.59 1014.53 1014.70 1014.74 1014.82 1014.88 1015.56 1015.77 1016.05 1016.07 1016.03 1016.13 1016.02 1016.01
1010.32 1009.47 1008.55 1008.07 1008.63 1009.66 1010.92 1011.98 1013.96 1015.80 1017.26 1017.09 1016.19 1015.57 1013.39 1012.74 1012.37 1012.36 1012.33 1012.28 1011.97 1011.89 1011.82 1011.78 1012.17 1012.16 1012.67 1012.85 1013.43 1013.31 1013.81 1014.37 1014.92 1015.17 1014.64 1014.83 1015.12 1015.59 1015.82 1016.01 1015.93 1015.88 1015.85 1015.74
1010.54 1009.78 1008.73 1008.42 1008.70 1009.73 1010.85 1012.16 1013.20 1015.46 1017.36 1017.37 1016.52 1015.13 1013.35 1012.61 1012.31 1012.34 1012.38 1012.43 1012.20 1011.97 1011.58 1011.45 1011.30 1011.55 1011.71 1011.87 1012.00 1012.22 1013.85 1015.18 1016.20 1016.92 1016.84 1015.23 1014.98 1015.16 1015.50 1015.47 1015.51 1015.43 1015.45 1015.29
1010.29 1010.32 1009.30 1008.90 1009.08 1009.87 1010.40 1012.23 1013.64 1015.22 1017.02 1017.54 1016.67 1015.78 1014.30 1013.26 1013.01 1013.01 1012.91 1012.79 1012.40 1011.95 1011.61 1011.40 1011.09 1010.90 1010.90 1011.65 1012.28 1012.78 1014.25 1014.35 1014.41 1014.38 1015.17 1015.36 1015.13 1014.58 1014.67 1015.07 1014.97 1015.13 1015.10 1015.04
1010.33 1010.84 1010.33 1009.87 1010.01 1010.45 1011.22 1012.45 1014.27 1015.41 1016.41 1016.98 1016.85 1015.31 1013.37 1013.23 1013.21 1013.21 1013.13 1013.01 1012.69 1012.24 1011.99 1011.46 1011.06 1010.91 1011.00 1011.25 1012.39 1012.87 1013.07 1012.77 1012.76 1012.99 1012.77 1013.41 1013.95 1014.54 1014.29 1014.41 1014.26 1014.53 1014.64 1014.57
1010.34 1011.22 1011.38 1010.93 1010.52 1010.73 1011.16 1012.25 1013.51 1015.02 1016.45 1016.69 1016.23 1014.49 1013.21 1013.07 1013.10 1013.14 1013.12 1012.81 1012.56 1012.40 1012.00 1011.64 1011.37 1011.15 1011.18 1011.17 1011.87 1012.13 1012.19 1012.23 1012.12 1011.11 1012.01 1012.82 1013.57 1013.96 1014.07 1014.07 1013.97 1013.91 1014.20 1014.20
1010.31 1011.75 1012.12 1011.66 1011.34 1011.01 1011.40 1012.19 1013.20 1014.27 1015.03 1015.69 1015.58 1014.12 1013.07 1012.85 1012.92 1013.19 1013.21 1013.04 1012.88 1012.45 1012.05 1011.68 1011.45 1011.63 1011.57 1011.55 1011.82 1012.04 1012.16 1011.91 1011.64 1011.57 1012.20 1012.54 1012.93 1012.93 1012.93 1013.06 1013.37 1013.75 1013.61 1013.63
1010.13 1011.71 1011.91 1011.92 1011.68 1011.55 1011.65 1012.03 1012.72 1013.51 1014.45 1014.88 1014.44 1013.52 1012.94 1012.91 1012.95 1013.00 1013.18 1013.12 1012.95 1012.49 1012.34 1012.35 1012.31 1012.32 1012.14 1012.01 1012.05 1012.19 1012.15 1011.96 1011.72 1011.92 1012.15 1012.25 1012.41 1012.52 1012.79 1012.90 1013.00 1013.29 1013.56 1013.51
1010.80 1011.79 1011.93 1011.90 1011.71 1011.57 1011.61 1012.01 1012.35 1012.89 1013.10 1013.24 1012.89 1013.05 1012.88 1012.78 1012.75 1013.01 1013.08 1013.13 1012.86 1012.76 1012.61 1012.67 1012.85 1012.85 1012.61 1012.60 1012.52 1012.62 1012.59 1012.47 1012.27 1012.22 1012.09 1012.26 1012.36 1012.28 1012.39 1012.71 1012.64 1012.89 1013.00 1013.04
1011.31 1012.17 1012.23 1012.41 1011.92 1011.79 1011.78 1011.70 1011.76 1012.19 1012.60 1012.63 1012.77 1012.83 1012.56 1012.43 1012.45 1012.79 1013.07 1013.08 1013.06 1012.97 1012.81 1012.95 1013.17 1013.05 1013.07 1012.94 1012.94 1013.01 1012.99 1012.83 1012.62 1012.71 1012.67 1012.58 1012.17 1011.90 1012.03 1012.27 1012.55 1012.52 1012.95 1013.11
1011.79 1012.59 1013.13 1013.00 1012.62 1012.41 1012.36 1011.66 1011.63 1011.79 1012.11 1012.45 1012.69 1012.41 1012.42 1012.61 1012.67 1012.90 1012.99 1013.08 1013.23 1013.15 1012.99 1013.16 1013.28 1013.24 1013.17 1013.19 1013.19 1013.17 1013.07 1013.05 1013.07 1013.17 1012.96 1012.66 1012.37 1012.10 1011.93 1012.02 1012.20 1012.49 1012.21 1012.73
1012.21 1013.07 1013.40 1013.61 1013.19 1012.87 1011.59 1011.43 1011.55 1011.79 1011.83 1011.80 1012.08 1012.25 1012.34 1012.50 1012.70 1012.80 1012.91 1013.07 1013.11 1013.08 1013.16 1013.24 1013.32 1013.36 1013.35 1013.35 1013.35 1013.33 1013.32 1013.30 1013.36 1013.38 1013.28 1013.09 1012.87 1012.55 1012.25 1012.15 1012.29 1012.45 1012.50 1012.77
1012.34 1013.09 1014.25 1014.21 1013.92 1012.92 1011.48 1011.54 1011.46 1011.58 1011.94 1011.76 1011.92 1012.29 1012.51 1012.58 1012.97 1012.98 1012.90 1012.95 1012.99 1013.17 1013.21 1013.29 1013.38 1013.42 1013.52 1013.73 1013.84 1013.81 1013.82 1013.81 1013.63 1013.57 1013.54 1013.34 1013.14 1012.90 1012.70 1012.57 1012.59 1012.67 1012.81 1012.90
1012.89 1013.19 1013.86 1014.71 1014.19 1013.15 1011.61 1011.20 1011.22 1011.43 1011.96 1011.27 1011.70 1012.23 1012.71 1013.17 1013.75 1013.56 1012.81 1012.87 1012.88 1012.99 1013.12 1013.25 1013.53 1013.64 1013.69 1013.94 1014.00 1014.04 1014.05 1013.91 1013.81 1013.74 1013.61 1013.47 1013.36 1013.33 1013.30 1013.21 1013.05 1013.00 1012.98 1012.89
1013.39 1014.23 1014.55 1014.62 1013.93 1012.44 1011.09 1011.25 1011.48 1011.92 1011.37 1010.74 1011.27 1011.98 1012.73 1013.24 1012.95 1012.75 1012.79 1012.73 1012.92 1012.83 1012.96 1013.36 1013.57 1013.74 1013.93 1014.08 1014.08 1014.09 1014.02 1013.91 1013.82 1013.73 1013.61 1013.43 1013.38 1013.37 1013.32 1013.27 1013.23 1013.16 1013.12 1013.03
1013.55 1014.33 1014.77 1014.81 1013.86 1012.33 1011.01 1011.64 1011.49 1010.69 1010.42 1010.65 1011.14 1011.61 1012.30 1012.48 1012.62 1012.82 1012.80 1012.82 1012.83 1012.87 1013.14 1013.29 1013.44 1013.73 1013.99 1014.11 1014.13 1014.09 1014.07 1013.90 1013.79 1013.64 1013.49 1013.43 1013.45 1013.43 1013.27 1013.31 1013.19 1013.15 1013.14 1013.04
1013.66 1013.30 1013.57 1013.31 1012.12 1010.97 1010.67 1010.30 1009.99 1010.22 1010.37 1010.59 1011.01 1011.32 1011.68 1012.24 1012.56 1012.63 1012.78 1012.79 1012.81 1013.02 1013.10 1013.14 1013.37 1013.63 1013.77 1013.81 1013.86 1013.94 1013.81 1013.70 1013.65 1013.61 1013.63 1013.65 1013.59 1013.47 1013.46 1013.44 1013.22 1013.08 1013.02 1013.10
1012.92 1013.01 1013.25 1012.86 1011.06 1010.64 1010.31 1010.05 1010.16 1010.00 1010.03 1010.12 1010.53 1010.82 1011.32 1011.85 1011.94 1012.40 1012.69 1012.83 1012.94 1012.94 1012.99 1013.16 1013.44 1013.54 1013.47 1013.47 1013.58 1013.59 1013.59 1013.63 1013.64 1013.61 1013.63 1013.68 1013.64 1013.39 1013.11 1012.72 1012.52 1012.31 1012.05 1011.92
1013.08 1012.96 1012.85 1012.55 1011.11 1010.63 1009.82 1009.66 1009.39 1009.59 1009.76 1009.79 1010.13 1010.37 1010.69 1011.20 1011.59 1012.02 1012.44 1012.67 1012.79 1012.86 1012.89 1013.07 1013.35 1013.46 1013.36 1013.42 1013.39 1013.32 1013.35 1013.44 1013.47 1013.49 1013.48 1013.49 1013.51 1013.38 1012.98 1012.69 1012.49 1012.29 1011.89 1011.61
1012.58 1011.91 1012.03 1011.39 1010.27 1010.13 1009.59 1008.91 1008.94 1009.35 1009.23 1009.25 1009.72 1010.20 1010.47 1010.71 1011.00 1011.59 1012.09 1012.18 1012.37 1012.39 1012.56 1012.87 1013.15 1013.34 1013.30 1013.33 1013.22 1013.10 1013.10 1013.23 1013.39 1013.53 1013.49 1013.42 1013.33 1013.13 1013.01 1012.82 1012.25 1011.82 1011.57 1011.17
Wind_Speed
3 6 3 6 3 4 1 2 3 1 4 2 4 3 4 7 1 4 5 7 7 8 4 4 4 6 7 7 10 9 9 7 5 3 3 2 3 3 3 4 6 6 5 5
7 0 3 4 4 6 5 5 2 1 3 2 4 4 6 4 5 3 5 7 7 8 7 4 5 3 2 6 8 8 9 8 6 3 3 3 3 2 2 2 4 5 6 5
4 5 5 4 3 2 2 7 5 5 1 3 5 6 6 5 3 4 5 4 3 6 8 3 5 2 5 7 9 10 10 9 6 5 3 2 2 0 0 2 3 4 6 5
4 2 1 6 4 6 3 8 9 10 4 1 4 5 6 6 8 5 5 2 4 7 5 3 2 4 4 7 6 7 7 7 5 6 3 4 4 4 3 3 3 3 6 6
9 3 4 5 4 3 3 4 8 6 4 4 1 3 10 4 7 5 2 3 5 6 5 6 4 2 5 4 6 5 6 6 6 7 6 5 4 3 2 2 3 3 4 5
6 3 3 5 6 3 7 8 10 6 3 3 3 3 6 4 5 7 0 2 2 6 7 6 3 2 2 3 4 5 6 7 7 7 6 7 6 5 3 3 3 3 3 3
6 4 4 2 6 5 8 6 4 4 4 5 5 1 9 6 6 4 8 9 9 4 5 7 6 4 4 7 8 5 7 9 8 8 7 8 7 6 6 5 3 4 3 3
2 7 2 1 3 7 5 7 6 4 4 4 3 4 6 4 7 6 7 8 9 9 6 7 7 7 6 7 7 9 7 6 4 5 8 5 6 4 5 4 3 4 3 4
3 6 5 2 3 1 4 1 5 9 3 3 4 7 10 6 8 7 9 9 10 9 9 9 8 7 9 8 10 11 6 8 12 12 11 6 5 6 6 7 5 5 4 4
6 3 3 4 2 4 2 5 4 4 4 2 4 6 7 6 7 8 9 9 10 8 9 8 10 8 6 3 5 3 8 8 8 5 6 8 7 7 6 4 6 6 6 5
5 5 7 2 2 2 3 2 7 6 4 6 1 7 7 4 2 6 8 8 9 10 9 9 8 4 2 3 7 8 8 10 10 6 8 10 7 6 5 7 7 7 6 5
5 6 2 2 4 3 1 2 4 6 4 1 4 8 2 4 3 4 8 9 8 6 8 8 7 5 3 4 7 9 8 8 11 14 6 5 5 4 6 6 8 5 7 5
7 2 3 8 8 3 3 2 4 4 4 6 6 7 1 2 3 5 3 6 5 5 6 7 9 9 8 7 3 7 6 6 9 6 7 7 6 7 8 5 5 5 6 7
8 3 7 8 7 3 3 1 3 4 4 5 6 3 6 6 6 7 7 6 4 7 7 7 8 7 6 4 3 6 6 5 6 3 4 4 4 2 4 5 5 4 4 4
4 4 2 1 3 3 1 1 2 6 4 5 5 6 0 0 4 3 3 5 7 7 8 6 6 6 5 2 1 2 3 4 4 3 4 3 4 5 1 4 5 3 4 3
3 1 1 2 2 3 2 4 3 2 2 3 5 2 4 1 3 2 3 5 6 7 7 6 4 5 3 4 3 3 3 5 3 5 6 5 6 5 4 4 5 3 1 1
3 6 4 3 1 2 6 6 3 2 1 6 4 7 3 2 0 1 4 5 6 7 6 6 3 2 3 4 3 4 5 3 3 4 4 5 6 4 3 2 2 4 4 4
5 4 2 2 2 2 7 2 3 2 3 4 4 5 6 4 2 3 2 3 6 6 6 4 1 2 2 3 2 3 4 4 4 3 4 5 4 3 3 4 3 3 3 4
2 5 3 3 2 5 5 3 6 5 5 6 7 5 3 1 3 3 2 2 3 4 2 1 1 1 2 2 3 4 5 4 4 5 5 5 5 5 4 3 2 2 0 2
4 6 5 3 3 4 9 3 2 4 6 9 8 8 7 5 1 6 4 3 3 2 1 1 2 1 1 2 4 4 4 3 4 4 5 5 5 5 5 5 3 1 2 3
3 3 3 2 3 8 5 6 3 4 11 7 9 7 7 6 7 4 3 0 2 1 5 3 3 3 1 1 1 3 3 3 4 4 4 4 4 4 4 4 2 3 3 4
6 6 4 3 2 7 6 5 8 8 1 7 7 7 8 5 4 5 5 4 3 3 2 2 4 4 1 1 1 3 3 3 4 4 4 5 5 5 4 4 3 3 4 5
3 6 4 9 9 5 7 6 6 3 4 6 7 7 8 8 8 7 5 5 2 3 3 1 2 3 2 1 2 2 2 2 3 4 5 5 6 5 4 4 5 4 3 3
2 3 2 3 3 5 6 5 6 6 7 6 6 8 9 8 8 7 5 4 4 4 4 2 2 4 4 1 3 4 3 2 3 4 5 4 4 5 4 3 3 3 4 4
4 3 2 6 7 6 7 8 7 7 6 6 6 9 10 8 7 7 6 6 6 5 3 3 4 5 5 3 4 4 4 3 4 4 4 4 3 4 5 4 4 4 6 6
5 7 6 7 7 4 7 5 6 8 10 9 9 6 5 8 9 7 7 6 6 6 3 3 4 5 5 4 5 5 4 4 3 5 3 3 3 4 4 4 7 8 14 14
Wind_Direction
356 54 346 301 197 229 350 89 91 23 337 10 357 290 314 314 281 311 313 349 330 318 14 21 55 97 120 127 131 145 149 175 148 147 143 165 199 204 207 211 221 225 208 190
15 281 272 274 331 148 107 108 58 46 1 41 342 308 300 275 258 245 309 319 324 323 341 34 78 96 114 132 148 161 174 175 182 164 165 164 169 198 192 221 229 221 206 190
170 241 331 17 352 74 173 146 177 186 41 35 355 316 320 286 304 281 268 244 342 327 308 313 80 156 146 165 179 180 184 184 179 173 137 115 100 72 298 233 247 224 198 196
232 243 16 325 272 158 236 182 146 130 86 210 61 286 307 311 320 305 330 263 306 352 306 349 153 182 212 205 201 187 183 183 188 175 183 184 175 187 216 213 213 209 186 196
255 288 346 322 257 191 271 137 126 96 96 92 313 84 273 341 321 299 327 312 322 327 328 325 294 233 208 217 219 202 187 191 187 186 199 194 200 222 226 241 243 226 194 199
242 290 219 223 35 51 149 69 42 60 73 34 277 125 287 279 245 312 250 340 329 349 346 313 293 253 59 274 189 219 202 225 207 195 198 204 204 228 240 232 217 214 224 212
326 304 286 199 75 316 79 69 40 347 6 229 323 16 241 264 289 245 295 309 308 269 284 277 280 255 189 205 213 223 215 226 222 207 208 198 217 220 226 230 209 208 221 247
77 336 305 311 188 192 201 155 155 223 182 260 350 255 263 249 295 288 285 284 293 316 303 274 258 240 217 220 240 215 247 291 252 234 226 217 210 214 236 238 224 228 225 221
152 276 292 212 45 103 169 100 138 106 24 66 264 289 306 327 319 326 320 319 309 310 307 303 284 239 222 212 185 207 217 27 31 336 317 272 227 214 232 232 220 229 237 235
211 307 265 304 89 35 115 142 72 24 135 216 282 290 243 305 323 335 336 328 316 307 315 311 307 279 227 176 136 175 96 111 124 205 277 283 276 234 223 234 230 237 244 230
127 121 288 6 36 235 7 39 52 113 118 158 177 264 218 219 328 323 311 302 298 306 309 297 315 335 179 205 94 139 143 167 172 200 190 254 261 263 249 238 230 220 233 216
188 144 199 235 307 265 110 135 138 119 215 149 149 272 329 221 257 316 318 319 321 321 322 326 321 335 341 261 154 154 168 181 197 209 196 222 239 241 262 258 252 201 230 219
185 48 42 351 351 3 69 100 106 106 84 192 140 257 150 108 96 12 341 5 357 344 354 6 13 18 357 355 137 160 178 199 222 199 187 202 211 204 241 245 248 250 240 240
88 120 154 187 205 186 280 343 161 128 125 173 225 266 10 355 47 24 8 4 351 27 7 360 6 355 351 13 144 166 210 235 246 247 200 220 248 256 236 238 246 252 263 254
106 131 164 137 298 200 171 330 201 202 223 166 218 171 158 225 60 6 339 342 15 357 345 360 354 339 345 348 315 224 273 314 271 309 308 316 334 282 253 260 237 243 235 262
20 150 109 137 13 129 205 269 277 177 178 73 118 138 232 113 87 21 346 354 358 337 323 357 26 16 9 316 318 317 323 317 307 337 329 332 311 302 252 248 208 162 119 276
82 134 109 247 330 129 307 248 216 279 189 148 180 219 161 88 53 325 323 354 330 309 330 0 54 17 327 317 325 281 301 347 358 360 24 17 357 360 336 252 201 221 200 153
121 91 65 192 79 216 240 213 161 224 229 199 111 161 181 191 225 295 301 303 302 326 351 10 358 311 317 330 298 321 328 340 3 7 358 348 348 16 61 75 91 146 150 184
12 116 86 125 185 284 303 186 172 172 239 197 163 177 194 208 46 305 231 284 290 315 326 160 253 295 339 332 356 349 342 349 350 1 3 353 358 357 18 48 67 32 320 232
63 68 117 128 160 223 236 193 156 105 293 190 172 183 188 120 126 257 280 295 348 304 146 104 133 138 110 343 356 350 356 5 14 2 341 345 349 351 357 346 337 282 266 271
37 13 183 136 199 283 233 140 184 129 238 171 174 174 162 177 198 211 211 105 236 235 49 45 43 86 98 302 328 324 338 333 320 329 337 351 353 334 311 311 303 304 294 301
181 153 209 108 121 278 146 83 168 217 311 171 170 180 182 200 180 194 192 192 188 48 41 28 20 17 26 237 209 334 302 298 319 339 343 343 339 331 327 318 311 308 302 290
261 185 202 181 209 218 223 204 217 170 169 189 171 192 173 174 194 181 194 194 213 243 229 329 360 331 293 220 147 267 261 304 319 333 321 326 328 329 335 321 315 313 310 294
274 154 187 2 270 240 240 256 246 204 206 184 188 179 168 186 174 183 188 207 228 239 230 213 266 299 299 296 236 246 285 297 306 307 314 324 327 323 316 291 261 264 264 263
203 114 193 266 277 273 251 225 234 216 217 171 174 181 189 176 181 179 193 205 222 222 211 187 222 257 277 308 278 277 281 269 293 306 309 316 309 301 295 282 271 272 262 235
187 195 170 226 224 187 249 254 206 205 211 199 171 178 200 184 182 179 195 206 200 193 196 207 225 247 274 275 271 271 258 229 260 295 307 299 299 296 300 309 315 247 247 277